Terminal Aerodrome Forecast
Issued by NWS Milwaukee/Sullivan, WI

Home | Current Version | Previous Version | Text Only | Print | Product List | Glossary On
Versions: 1 2 3 4 5 6 7 8 9 10 11 12 13 14 15 16 17 18 19 20 21 22 23 24 25 26 27 28 29 30 31 32 33 34 35 36 37 38 39 40 41 42 43 44 45 46 47 48 49 50
459
FTUS43 KMKX 080544
TAFMKE
TAF
KMKE 080544Z 0806/0912 25006KT P6SM SCT200
     FM080900 26006KT P6SM SCT025 OVC050
     FM081100 28007KT P6SM VCSH OVC025
     FM081200 29007KT 6SM -SN OVC015
     FM081900 30013KT 5SM -SN OVC015
     FM090300 32013KT 2SM -SN OVC010
     FM091000 33013KT P6SM -SN OVC025=

USA.gov is the U.S. government's official web portal to all federal, state and local government web resources and services.